Weather in Orel

Russia / Oryol Oblast     52°58′13″N   36°03′49″E
temp.,
°C
wind,
m/s
gust,
m/s
humid.,
%
clouds,
%
prec.,
mm/h
press.,
hPa
HPBL,
m
19 april, mon
mon1900:00+5nne359460 0.0 1018108
03:00+4ne359369 0.1 1018106
06:00+4ne359498 0.0 101899
09:00+8ene487899 0.3 1018527
12:00+10ese457096 0.6 1017759
15:00+10ne6669100 2.3 1017937
18:00+7ne6985100 0.8 1017610
21:00+6ne5986100 0.8 1017452
20 april, tue
tue2000:00+6ene5895100 1.7 1016629
03:00+6ene479392 5.6 1015363
06:00+5ene3898100 0.1 1015263
09:00+8e61088100 0.8 1014795
12:00+9e6877100 0.0 1013939
15:00+7ene7988100 0.1 1011690
18:00+5ne61193100 0.4 1008542
21:00+4nne61095100 1.8 1005692
21 april, wed
wed2100:00+1n61197100 3.2 1003401
03:00+1nw61098100 5.1 1002369
06:00+2wnw71297100 0.8 1003563
09:00+3w61192100 0.9 1006864
12:00+6w61078100 0.1 10081182
15:00+9wsw796896 0.3 10091322
18:00+8wsw697799 0.3 1011805
21:00+4ssw498791 0.3 1013168
22 april, thu
thu2200:00+4s4118499 0.0 1014230
03:00+4ssw5148398 0.1 1015364
06:00+5ssw51287100 0.0 1015342
09:00+9ssw6117986 0.0 1016493
12:00+13ssw711589 0.0 10171416
15:00+14ssw696082 0.2 10161253
18:00+13ssw5106475 0.1 1017495
21:00+9s4107750 0.3 1018177
23 april, fri
fri2300:00+8s498465 0.0 1018161
03:00+7s398689 0.0 1018161
06:00+6sse4108774 0.0 1017182
09:00+10s5118098 0.0 1017342
12:00+16s89525 0.0 10151772
15:00+16s7105562 0.6 10131744
18:00+14s7116319 0.8 1012890
21:00+8wnw4894100 4.0 1013387